DW6455 Orivesi FI current weather conditions

sailwx.info

Wind from 269 at 4 knots gusting 12

Air temperature 6.7° C
Dewpoint 5.6° C

Last reported at 2019-Oct-20 00:02 UTC.
Time now 2019-Oct-20 00:36 UTC

Location: N 61°39' E 024°22'.
View on Google Maps.

See reports from other nearby stations

  
Tides and Currents Weather Stations Pressure Air Temp Water Temp Dewpoint Dewpoint Depression Visibility Wind Speed Wind Dir Waves Ship Positions
date/time (UTC)wind fromknots sea level pressurealtimeterstation pressurevisibilityair tempwater tempwave heightnotes
2019-Oct-20 00:02 269 4 gusting 12 6.7
2019-Oct-19 23:57 306 3 gusting 13 6.7
2019-Oct-19 23:52 294 4 gusting 13 6.7
2019-Oct-19 23:47 292 4 gusting 13 6.7
2019-Oct-19 23:42 286 2 gusting 13 7.2
2019-Oct-19 23:37 297 2 gusting 13 7.2
2019-Oct-19 23:32 309 4 gusting 13 7.2
2019-Oct-19 23:27 303 4 gusting 13 7.2
2019-Oct-19 23:22 259 3 gusting 13 7.2
2019-Oct-19 23:17 344 3 gusting 13 7.2
2019-Oct-19 23:12 298 2 gusting 8 7.8
2019-Oct-19 23:07 276 2 gusting 8 7.8
2019-Oct-19 23:02 277 3 gusting 11 7.8
2019-Oct-19 22:57 242 3 gusting 13 7.8
2019-Oct-19 22:52 284 3 gusting 13 7.8
2019-Oct-19 22:47 300 4 gusting 13 7.8
2019-Oct-19 22:42 296 4 gusting 13 7.8
2019-Oct-19 22:37 309 4 gusting 13 8.3
2019-Oct-19 22:32 263 4 gusting 10 8.3
2019-Oct-19 22:27 269 3 gusting 12 8.3
2019-Oct-19 22:22 284 4 gusting 12 8.3
2019-Oct-19 22:17 257 3 gusting 12 8.3
2019-Oct-19 22:12 279 1 gusting 10 8.3
2019-Oct-19 22:07 263 2 gusting 10 8.9
2019-Oct-19 22:02 267 2 gusting 11 8.9
2019-Oct-19 21:57 243 3 gusting 11 8.9
2019-Oct-19 21:52 234 4 gusting 15 8.9
2019-Oct-19 21:47 267 5 gusting 15 9.4
2019-Oct-19 21:42 215 5 gusting 16 9.4
2019-Oct-19 21:37 222 4 gusting 18 9.4
2019-Oct-19 21:32 278 5 gusting 18 9.4
2019-Oct-19 21:27 271 5 gusting 18 9.4
2019-Oct-19 21:22 259 4 gusting 15 10.0
2019-Oct-19 21:17 222 5 gusting 13 10.0
2019-Oct-19 21:12 248 6 gusting 13 10.0
2019-Oct-19 21:07 264 5 gusting 12 9.4
2019-Oct-19 21:02 204 4 gusting 12 9.4
2019-Oct-19 20:57 240 3 gusting 12 9.4
2019-Oct-19 20:52 243 4 gusting 12 9.4
2019-Oct-19 20:47 236 5 gusting 12 9.4
2019-Oct-19 20:42 243 4 gusting 13 9.4
2019-Oct-19 20:37 221 4 gusting 13 9.4
2019-Oct-19 20:32 250 4 gusting 13 9.4
2019-Oct-19 20:27 231 3 gusting 13 9.4
2019-Oct-19 20:22 246 4 gusting 13 9.4
2019-Oct-19 20:17 240 4 gusting 13 9.4
2019-Oct-19 20:12 225 3 gusting 13 9.4
2019-Oct-19 20:07 245 4 gusting 13 9.4
2019-Oct-19 20:02 256 4 gusting 13 9.4
2019-Oct-19 19:57 209 5 gusting 13 9.4
2019-Oct-19 19:52 198 5 gusting 12 9.4
2019-Oct-19 19:47 185 4 gusting 12 9.4
2019-Oct-19 19:42 262 4 gusting 10 9.4
2019-Oct-19 19:37 198 4 gusting 10 9.4
2019-Oct-19 19:32 221 4 gusting 10 9.4
2019-Oct-19 19:27 226 3 gusting 9 9.4
2019-Oct-19 19:22 203 3 gusting 9 9.4
2019-Oct-19 19:17 205 3 gusting 13 9.4
2019-Oct-19 19:12 236 3 gusting 13 9.4
2019-Oct-19 19:07 228 3 gusting 13 9.4
2019-Oct-19 19:02 210 4 gusting 10 9.4
2019-Oct-19 18:57 290 3 gusting 10 9.4
2019-Oct-19 18:52 209 2 gusting 10 9.4
2019-Oct-19 18:47 235 2 gusting 8 9.4
2019-Oct-19 18:42 205 4 gusting 10 9.4
2019-Oct-19 18:37 227 4 gusting 10 9.4
2019-Oct-19 18:32 211 5 gusting 10 9.4
2019-Oct-19 18:27 240 3 gusting 10 8.9
2019-Oct-19 18:22 240 2 gusting 8 8.9
2019-Oct-19 18:17 207 2 gusting 9 8.9
2019-Oct-19 18:12 192 3 gusting 9 8.9
2019-Oct-19 18:07 212 2 gusting 6 8.9
2019-Oct-19 18:02 235 1 gusting 7 8.9
2019-Oct-19 17:57 229 1 gusting 7 8.9
2019-Oct-19 17:52 226 1 gusting 9 8.9
2019-Oct-19 17:47 231 2 gusting 11 8.9
2019-Oct-19 17:42 258 4 gusting 11 8.9
2019-Oct-19 17:37 264 4 gusting 11 8.9
2019-Oct-19 17:32 245 4 gusting 13 8.9
2019-Oct-19 17:27 237 4 gusting 13 8.9
2019-Oct-19 17:22 234 3 gusting 13 8.9
2019-Oct-19 17:17 229 3 gusting 10 8.9
2019-Oct-19 17:12 257 4 gusting 10 8.9
2019-Oct-19 17:07 241 4 gusting 9 8.9
2019-Oct-19 17:02 213 3 gusting 8 9.4
2019-Oct-19 16:57 207 1 gusting 11 9.4
2019-Oct-19 16:52 225 3 gusting 12 9.4
2019-Oct-19 16:47 255 3 gusting 12 9.4
2019-Oct-19 16:42 209 3 gusting 12 9.4
2019-Oct-19 16:37 252 3 gusting 11 9.4
2019-Oct-19 16:32 268 2 gusting 11 9.4
2019-Oct-19 16:27 232 1 gusting 7 9.4
2019-Oct-19 16:22 249 3 gusting 7 9.4
2019-Oct-19 16:17 248 2 gusting 7 9.4
2019-Oct-19 16:12 223 2 gusting 7 9.4
2019-Oct-19 16:07 227 2 gusting 6 9.4
2019-Oct-19 16:02 227 2 gusting 6 9.4
2019-Oct-19 15:57 206 1 gusting 6 9.4
2019-Oct-19 15:52 253 0 gusting 9 9.4
2019-Oct-19 15:47 229 1 gusting 9 9.4
2019-Oct-19 15:42 256 2 gusting 9 9.4
2019-Oct-19 15:37 207 2 gusting 9 9.4
2019-Oct-19 15:32 204 2 gusting 12 9.4
2019-Oct-19 15:27 212 2 gusting 12 9.4
2019-Oct-19 15:22 257 1 gusting 12 9.4
2019-Oct-19 15:17 241 3 gusting 12 9.4
2019-Oct-19 15:12 268 3 gusting 10 9.4
2019-Oct-19 15:07 227 2 gusting 10 9.4
2019-Oct-19 15:02 299 2 gusting 11 9.4
2019-Oct-19 14:57 257 2 gusting 11 9.4
2019-Oct-19 14:52 240 3 gusting 11 9.4
2019-Oct-19 14:47 218 3 gusting 11 9.4
2019-Oct-19 14:42 211 3 gusting 10 10.0
2019-Oct-19 14:37 244 2 gusting 10 10.0
2019-Oct-19 14:32 267 2 gusting 10 10.0
2019-Oct-19 14:27 219 3 gusting 10 10.0
2019-Oct-19 14:22 231 3 gusting 10 10.0
2019-Oct-19 14:17 227 3 gusting 10 10.0
2019-Oct-19 14:12 224 2 gusting 11 10.0
2019-Oct-19 14:07 251 3 gusting 11 10.0
2019-Oct-19 14:02 211 4 gusting 12 10.0
2019-Oct-19 13:57 243 4 gusting 12 10.0
2019-Oct-19 13:47 255 3 gusting 11 10.0
2019-Oct-19 13:42 229 3 gusting 13 10.0
2019-Oct-19 13:37 214 3 gusting 13 10.0
2019-Oct-19 13:32 221 4 gusting 13 10.0
2019-Oct-19 13:27 250 4 gusting 13 10.0
2019-Oct-19 13:22 215 3 gusting 7 10.6
2019-Oct-19 13:17 232 3 gusting 7 10.6
2019-Oct-19 13:12 225 2 gusting 7 10.6
2019-Oct-19 13:07 228 2 gusting 7 10.6
2019-Oct-19 13:02 231 2 gusting 8 10.6
2019-Oct-19 12:58 249 1 gusting 8 10.6
2019-Oct-19 12:52 235 1 gusting 12 10.6
2019-Oct-19 12:47 259 2 gusting 12 10.6
2019-Oct-19 12:42 227 4 gusting 12 10.6
2019-Oct-19 12:37 219 4 gusting 12 10.6
2019-Oct-19 12:32 225 4 gusting 11 10.6
2019-Oct-19 12:27 229 4 gusting 11 10.6
2019-Oct-19 12:22 229 3 gusting 11 10.6
2019-Oct-19 12:17 217 2 gusting 11 11.1
2019-Oct-19 12:12 227 3 gusting 11 11.1
2019-Oct-19 11:37 225 2 gusting 8 11.1
2019-Oct-19 11:32 211 3 gusting 10 11.1
2019-Oct-19 11:27 201 3 gusting 10 11.1
2019-Oct-19 11:22 221 3 gusting 13 11.1
2019-Oct-19 11:17 265 4 gusting 13 11.1
2019-Oct-19 11:13 215 4 gusting 13 11.1
2019-Oct-19 10:12 224 3 gusting 8 11.1
2019-Oct-19 10:02 209 3 gusting 8 11.1
2019-Oct-19 09:57 197 4 gusting 8 11.1
2019-Oct-19 09:52 212 3 gusting 9 11.1
2019-Oct-19 09:47 199 1 gusting 9 11.1
2019-Oct-19 09:42 205 3 gusting 9 11.1
2019-Oct-19 09:37 165 3 gusting 9 11.1
2019-Oct-19 09:32 205 2 gusting 10 11.1
2019-Oct-19 09:27 182 2 gusting 10 11.1
2019-Oct-19 09:22 216 3 gusting 10 11.1
2019-Oct-19 09:17 212 3 gusting 10 11.1
2019-Oct-19 09:12 203 3 gusting 10 11.1
2019-Oct-19 09:07 187 3 gusting 10 11.1
2019-Oct-19 09:02 194 3 gusting 8 11.1
2019-Oct-19 08:57 186 2 gusting 8 10.6
2019-Oct-19 08:52 196 3 gusting 8 10.6
2019-Oct-19 08:47 190 3 gusting 8 10.6
2019-Oct-19 08:42 190 3 gusting 8 10.6
2019-Oct-19 08:37 174 2 gusting 8 10.6
2019-Oct-19 08:32 157 2 gusting 9 10.6
2019-Oct-19 08:27 187 2 gusting 9 10.6
2019-Oct-19 08:22 182 2 gusting 9 10.6
2019-Oct-19 08:17 202 3 gusting 9 10.6
2019-Oct-19 08:12 166 4 gusting 8 10.6
2019-Oct-19 08:07 165 3 gusting 8 10.6
2019-Oct-19 08:02 149 3 gusting 11 10.0
2019-Oct-19 07:57 182 4 gusting 11 10.0
2019-Oct-19 07:52 179 4 gusting 11 10.0
2019-Oct-19 07:47 150 4 gusting 11 10.0
2019-Oct-19 07:42 191 4 gusting 10 10.0
2019-Oct-19 07:37 158 4 gusting 10 10.0
2019-Oct-19 07:32 149 4 gusting 8 10.0
2019-Oct-19 07:27 165 3 gusting 8 10.0
2019-Oct-19 07:22 188 2 gusting 6 10.0
2019-Oct-19 07:17 198 2 gusting 6 10.0
2019-Oct-19 07:12 153 2 gusting 7 10.0
2019-Oct-19 07:07 146 2 gusting 7 10.0
2019-Oct-19 07:02 195 3 gusting 7 10.0
2019-Oct-19 06:57 157 2 gusting 7 10.0
2019-Oct-19 06:52 164 3 gusting 7 9.4
2019-Oct-19 06:47 146 3 gusting 7 9.4
2019-Oct-19 06:42 157 3 gusting 7 9.4
2019-Oct-19 06:37 162 3 gusting 7 9.4
2019-Oct-19 06:32 140 2 gusting 5 9.4
2019-Oct-19 06:27 186 2 gusting 5 9.4
2019-Oct-19 06:22 188 0 gusting 1 9.4
2019-Oct-19 06:17 151 9.4
2019-Oct-19 06:12 151 9.4
2019-Oct-19 06:07 151 9.4
2019-Oct-19 06:02 151 0 gusting 5 9.4
2019-Oct-19 05:57 148 0 gusting 5 9.4
2019-Oct-19 05:52 156 1 gusting 3 9.4
2019-Oct-19 05:47 159 1 gusting 3 9.4
2019-Oct-19 05:42 167 1 gusting 2 9.4
2019-Oct-19 05:37 138 1 gusting 2 8.9
2019-Oct-19 05:32 138 1 gusting 2 8.9
2019-Oct-19 05:27 138 0 gusting 2 8.9
2019-Oct-19 05:22 138 0 gusting 2 8.9
2019-Oct-19 05:17 138 0 gusting 1 8.9
2019-Oct-19 05:12 138 0 gusting 2 8.9
2019-Oct-19 05:07 138 0 gusting 2 8.9
2019-Oct-19 05:02 138 0 gusting 2 9.4
2019-Oct-19 04:57 137 0 gusting 2 9.4
2019-Oct-19 04:52 154 0 gusting 5 9.4
2019-Oct-19 04:47 154 0 gusting 5 9.4
2019-Oct-19 04:42 154 0 gusting 6 9.4
2019-Oct-19 04:37 153 1 gusting 6 9.4
2019-Oct-19 04:32 153 1 gusting 7 9.4
2019-Oct-19 04:27 158 2 gusting 7 9.4
2019-Oct-19 04:22 158 2 gusting 7 9.4
2019-Oct-19 04:17 178 3 gusting 7 9.4
2019-Oct-19 04:12 163 3 gusting 7 8.9
2019-Oct-19 04:07 155 3 gusting 7 8.9
2019-Oct-19 04:02 176 3 gusting 7 8.9
2019-Oct-19 03:57 155 3 gusting 7 8.9
2019-Oct-19 03:52 158 4 gusting 6 8.9
2019-Oct-19 03:47 149 3 gusting 6 8.9
2019-Oct-19 03:42 158 2 gusting 7 8.9
2019-Oct-19 03:37 212 2 gusting 7 8.9
2019-Oct-19 03:32 182 2 gusting 4 8.9
2019-Oct-19 03:27 169 2 gusting 4 8.9
2019-Oct-19 03:22 172 0 gusting 3 8.9
2019-Oct-19 03:17 180 0 gusting 3 8.9
2019-Oct-19 03:12 180 0 gusting 3 8.9
2019-Oct-19 03:07 180 0 gusting 3 8.9
2019-Oct-19 03:02 182 0 gusting 4 8.9
2019-Oct-19 02:57 181 0 gusting 4 8.9
2019-Oct-19 02:52 182 0 gusting 5 8.9
2019-Oct-19 02:47 157 0 gusting 5 8.9
2019-Oct-19 02:42 157 1 gusting 6 8.9
2019-Oct-19 02:37 157 1 gusting 6 8.9
2019-Oct-19 02:32 157 2 gusting 6 8.9
2019-Oct-19 02:27 159 3 gusting 6 8.9
2019-Oct-19 02:22 164 3 gusting 6 8.9
2019-Oct-19 02:17 165 2 gusting 6 8.9
2019-Oct-19 02:12 167 2 gusting 6 8.9
2019-Oct-19 02:07 159 3 gusting 6 8.9
2019-Oct-19 02:02 182 3 gusting 6 8.9
2019-Oct-19 01:57 159 2 gusting 6 8.9
2019-Oct-19 01:52 192 2 gusting 5 8.9
2019-Oct-19 01:47 160 2 gusting 5 8.9
2019-Oct-19 01:42 167 2 gusting 6 8.9
2019-Oct-19 01:37 163 2 gusting 6 8.9
2019-Oct-19 01:32 180 2 gusting 6 8.9
2019-Oct-19 01:27 164 1 gusting 5 8.9
2019-Oct-19 01:22 168 1 gusting 4 8.9
2019-Oct-19 01:17 186 1 gusting 3 8.9
2019-Oct-19 01:12 186 0 gusting 3 8.9
2019-Oct-19 01:07 187 0 gusting 3 8.9
2019-Oct-19 01:02 187 0 gusting 4 8.9
2019-Oct-19 00:57 189 0 gusting 4 8.9
2019-Oct-19 00:52 189 8.9
2019-Oct-19 00:47 189 0 gusting 3 8.9
2019-Oct-19 00:42 189 0 gusting 3 8.9
2019-Oct-19 00:37 188 0 gusting 2 8.9
2019-Oct-19 00:32 189 0 gusting 2 8.9
2019-Oct-19 00:27 189 0 gusting 2 8.9
2019-Oct-19 00:22 190 0 gusting 2 8.9
2019-Oct-19 00:17 190 8.9
2019-Oct-19 00:12 189 0 gusting 3 8.3
2019-Oct-19 00:07 189 0 gusting 3 8.3
2019-Oct-19 00:02 190 0 gusting 3 8.3
2019-Oct-18 23:57 189 8.3
2019-Oct-18 23:52 189 8.3
2019-Oct-18 23:47 190 8.3
2019-Oct-18 23:42 189 8.3
2019-Oct-18 23:37 189 8.3
2019-Oct-18 23:32 190 0 gusting 3 8.3
2019-Oct-18 23:27 189 0 gusting 3 8.3
2019-Oct-18 23:22 194 0 gusting 2 8.3
2019-Oct-18 23:17 194 0 gusting 2 8.3
2019-Oct-18 23:12 194 8.3
2019-Oct-18 23:07 194 8.3
2019-Oct-18 23:02 194 8.3
2019-Oct-18 22:57 195 0 gusting 4 8.3
2019-Oct-18 22:52 194 1 gusting 4 8.3
2019-Oct-18 22:47 194 0 gusting 4 8.3
2019-Oct-18 22:42 186 0 gusting 3 8.3
2019-Oct-18 22:37 186 1 gusting 3 8.3
2019-Oct-18 22:32 198 1 gusting 4 8.3
2019-Oct-18 22:27 198 1 gusting 4 8.3
2019-Oct-18 22:22 198 0 gusting 3 8.3
2019-Oct-18 22:17 200 0 gusting 3 8.3
2019-Oct-18 22:12 200 0 gusting 3 8.3
2019-Oct-18 22:07 200 0 gusting 3 8.3
2019-Oct-18 22:02 199 0 gusting 3 8.3
2019-Oct-18 21:57 200 1 gusting 5 8.3
2019-Oct-18 21:52 204 1 gusting 5 8.3
2019-Oct-18 21:47 205 1 gusting 6 8.3
2019-Oct-18 21:42 202 2 gusting 6 8.3
2019-Oct-18 21:37 193 2 gusting 6 8.3
2019-Oct-18 21:32 202 2 gusting 7 8.3
2019-Oct-18 21:27 164 2 gusting 7 8.3
2019-Oct-18 21:22 191 1 gusting 7 8.3
2019-Oct-18 21:17 183 3 gusting 7 8.3
2019-Oct-18 21:12 164 3 gusting 7 8.3
2019-Oct-18 21:07 200 1 gusting 7 8.3
2019-Oct-18 21:02 213 2 gusting 7 8.3
2019-Oct-18 20:57 209 2 gusting 7 8.3
2019-Oct-18 20:52 148 1 gusting 6 8.3
2019-Oct-18 20:47 182 1 gusting 6 8.3
2019-Oct-18 20:42 192 2 gusting 6 8.3
2019-Oct-18 20:37 165 1 gusting 6 8.3
2019-Oct-18 20:32 162 0 gusting 5 8.3
2019-Oct-18 20:27 186 0 gusting 4 8.3
2019-Oct-18 20:22 207 0 gusting 5 8.3
2019-Oct-18 20:17 207 0 gusting 5 8.3
2019-Oct-18 20:12 182 1 gusting 5 8.3
2019-Oct-18 20:07 211 1 gusting 4 8.3
2019-Oct-18 20:02 192 0 gusting 3 8.3
2019-Oct-18 19:57 189 0 gusting 4 8.3
2019-Oct-18 19:52 191 1 gusting 4 7.8
2019-Oct-18 19:47 190 1 gusting 3 7.8
2019-Oct-18 19:42 197 0 gusting 3 7.8
2019-Oct-18 19:37 203 7.8
2019-Oct-18 19:32 206 0 gusting 4 7.8
2019-Oct-18 19:27 206 0 gusting 4 7.8
2019-Oct-18 19:22 159 0 gusting 3 7.8
2019-Oct-18 19:17 186 0 gusting 3 7.8
2019-Oct-18 19:12 186 0 gusting 5 7.8
2019-Oct-18 19:07 186 0 gusting 5 7.8
2019-Oct-18 19:02 188 0 gusting 5 7.8
2019-Oct-18 18:57 206 0 gusting 4 7.8
2019-Oct-18 18:52 193 0 gusting 4 7.8
2019-Oct-18 18:47 191 0 gusting 6 7.8
2019-Oct-18 18:42 192 1 gusting 6 7.8
2019-Oct-18 18:37 190 2 gusting 7 7.8
2019-Oct-18 18:32 196 2 gusting 7 7.8
2019-Oct-18 18:27 161 2 gusting 7 7.8
2019-Oct-18 18:22 188 2 gusting 6 7.8
2019-Oct-18 18:17 165 2 gusting 8 7.8
2019-Oct-18 18:12 186 2 gusting 8 7.8
2019-Oct-18 18:07 155 3 gusting 8 7.2
2019-Oct-18 18:02 172 4 gusting 8 7.2
2019-Oct-18 17:57 152 3 gusting 8 7.2
2019-Oct-18 17:52 163 3 gusting 8 7.2
2019-Oct-18 17:47 190 2 gusting 8 7.2
2019-Oct-18 17:42 202 3 gusting 8 7.2
2019-Oct-18 17:37 150 3 gusting 8 7.2
2019-Oct-18 17:32 202 3 gusting 7 7.2
2019-Oct-18 17:27 172 3 gusting 8 7.2
2019-Oct-18 17:22 149 3 gusting 8 7.2
2019-Oct-18 17:17 153 3 gusting 8 7.2
2019-Oct-18 17:12 182 3 gusting 7 7.2
2019-Oct-18 17:07 166 2 gusting 7 6.7
2019-Oct-18 17:02 179 2 gusting 7 6.7
2019-Oct-18 16:57 170 1 gusting 6 6.7
2019-Oct-18 16:52 163 2 gusting 7 6.7
2019-Oct-18 16:47 159 3 gusting 7 6.7
2019-Oct-18 16:42 146 3 gusting 7 6.7
2019-Oct-18 16:37 161 2 gusting 6 6.7
2019-Oct-18 16:32 161 2 gusting 6 6.7
2019-Oct-18 16:27 162 2 gusting 6 6.7
2019-Oct-18 16:22 153 2 gusting 6 6.7
2019-Oct-18 16:17 164 2 gusting 6 6.7
2019-Oct-18 16:12 181 2 gusting 6 6.7
2019-Oct-18 16:07 161 2 gusting 6 6.7
2019-Oct-18 16:02 161 2 gusting 6 6.7
2019-Oct-18 15:57 161 2 gusting 6 6.7
2019-Oct-18 15:52 162 2 gusting 6 6.7
2019-Oct-18 15:47 162 2 gusting 6 6.7
2019-Oct-18 15:42 162 2 gusting 5 6.7
2019-Oct-18 15:37 165 1 gusting 5 6.7
2019-Oct-18 15:32 165 2 gusting 5 6.7
2019-Oct-18 15:27 163 2 gusting 5 6.7
2019-Oct-18 15:22 163 1 gusting 5 6.7
2019-Oct-18 15:17 162 1 gusting 5 6.7
2019-Oct-18 15:12 158 1 gusting 5 6.7
2019-Oct-18 15:07 158 1 gusting 5 6.7
2019-Oct-18 15:02 157 1 gusting 5 6.7
2019-Oct-18 14:57 158 0 gusting 5 6.7
2019-Oct-18 14:52 158 1 gusting 6 6.7
2019-Oct-18 14:47 157 2 gusting 6 6.7
2019-Oct-18 14:42 157 3 gusting 6 6.7
2019-Oct-18 14:37 159 3 gusting 6 6.7
2019-Oct-18 14:32 163 3 gusting 7 6.7
2019-Oct-18 14:27 167 3 gusting 7 6.7
2019-Oct-18 14:22 169 3 gusting 6 6.7
2019-Oct-18 14:17 167 4 gusting 6 6.7
2019-Oct-18 14:12 162 2 gusting 8 6.7
2019-Oct-18 14:07 194 2 gusting 8 6.7
2019-Oct-18 14:02 172 3 gusting 8 6.7
2019-Oct-18 13:57 175 4 gusting 8 6.7
2019-Oct-18 13:52 146 4 gusting 6 6.7
2019-Oct-18 13:47 188 3 gusting 6 6.7
2019-Oct-18 13:42 163 2 gusting 6 6.7
2019-Oct-18 13:37 171 2 gusting 6 6.7
2019-Oct-18 13:32 181 2 gusting 6 6.7
2019-Oct-18 13:27 196 1 gusting 6 6.1
2019-Oct-18 13:22 183 2 gusting 4 6.1
2019-Oct-18 13:17 170 1 gusting 4 6.1
2019-Oct-18 13:12 177 1 gusting 5 6.1
2019-Oct-18 13:07 171 0 gusting 5 6.1
2019-Oct-18 13:02 171 1 gusting 4 6.1
2019-Oct-18 12:57 170 2 gusting 4 6.1
2019-Oct-18 12:52 165 1 gusting 6 6.1
2019-Oct-18 12:47 182 1 gusting 6 6.1
2019-Oct-18 12:42 182 1 gusting 3 6.1
2019-Oct-18 12:37 167 1 gusting 3 6.1
2019-Oct-18 12:32 182 1 gusting 3 6.1
2019-Oct-18 12:27 179 1 gusting 3 6.1
2019-Oct-18 12:22 184 0 gusting 3 6.1
2019-Oct-18 12:17 184 0 gusting 3 6.1
2019-Oct-18 12:12 183 0 gusting 3 6.1
2019-Oct-18 12:07 185 0 gusting 3 6.1
2019-Oct-18 12:02 188 0 gusting 3 6.1
2019-Oct-18 11:57 189 0 gusting 3 6.1
2019-Oct-18 11:52 189 0 gusting 4 6.1
2019-Oct-18 11:47 189 0 gusting 4 6.1
2019-Oct-18 11:42 189 0 gusting 4 6.1
2019-Oct-18 11:37 189 0 gusting 4 6.1
2019-Oct-18 11:32 165 0 gusting 5 6.1
2019-Oct-18 11:27 192 0 gusting 5 6.1
2019-Oct-18 11:22 194 1 gusting 5 6.1
2019-Oct-18 11:17 191 1 gusting 5 6.1
2019-Oct-18 11:12 191 0 gusting 4 6.1
2019-Oct-18 11:07 198 0 gusting 4 6.1
2019-Oct-18 11:02 211 0 gusting 5 6.1
2019-Oct-18 10:57 186 0 gusting 5 6.1
2019-Oct-18 10:52 188 1 gusting 6 6.1
2019-Oct-18 10:47 207 1 gusting 6 6.1
2019-Oct-18 10:42 206 0 gusting 5 6.1
2019-Oct-18 10:37 182 1 gusting 5 6.1
2019-Oct-18 10:32 206 0 gusting 5 6.1
2019-Oct-18 10:27 205 0 gusting 5 5.6
2019-Oct-18 10:22 205 0 gusting 5 5.6
2019-Oct-18 10:17 205 1 gusting 5 5.6
2019-Oct-18 10:12 205 0 gusting 5 5.6
2019-Oct-18 10:07 204 0 gusting 5 5.6
2019-Oct-18 10:02 203 1 gusting 5 5.6
2019-Oct-18 09:57 203 1 gusting 5 5.6
2019-Oct-18 09:52 201 0 gusting 4 5.6
2019-Oct-18 09:47 192 0 gusting 4 5.6
2019-Oct-18 09:42 192 1 gusting 5 5.6
2019-Oct-18 09:37 193 1 gusting 5 5.6
2019-Oct-18 09:32 193 1 gusting 5 5.6
2019-Oct-18 09:27 193 1 gusting 5 5.0
2019-Oct-18 09:22 196 0 gusting 5 5.0
2019-Oct-18 09:17 191 0 gusting 5 5.0
2019-Oct-18 09:12 205 0 gusting 5 5.0
2019-Oct-18 09:07 205 0 gusting 5 5.0
2019-Oct-18 09:02 198 0 gusting 5 5.0
2019-Oct-18 08:57 197 1 gusting 5 5.0
2019-Oct-18 08:52 196 1 gusting 6 5.0
2019-Oct-18 08:47 207 1 gusting 6 5.0
2019-Oct-18 08:42 202 1 gusting 4 5.0
2019-Oct-18 08:37 200 1 gusting 4 5.0
2019-Oct-18 08:32 200 0 gusting 6 5.0
2019-Oct-18 08:27 200 1 gusting 6 5.0
2019-Oct-18 08:22 200 2 gusting 6 5.0
2019-Oct-18 08:17 200 2 gusting 6 5.0
2019-Oct-18 08:12 205 1 gusting 6 5.0
2019-Oct-18 08:07 205 0 gusting 6 5.0
2019-Oct-18 08:02 205 1 gusting 6 5.0
2019-Oct-18 07:57 205 1 gusting 6 5.0
2019-Oct-18 07:52 206 2 gusting 5 4.4
2019-Oct-18 07:47 197 1 gusting 5 4.4
2019-Oct-18 07:42 202 0 gusting 6 4.4
2019-Oct-18 07:37 202 0 gusting 6 4.4
2019-Oct-18 07:32 202 1 gusting 6 4.4
2019-Oct-18 07:27 203 2 gusting 6 4.4
2019-Oct-18 07:22 199 1 gusting 5 4.4
2019-Oct-18 07:17 187 0 gusting 4 4.4
2019-Oct-18 07:12 188 0 gusting 5 4.4
2019-Oct-18 07:07 188 1 gusting 5 4.4
2019-Oct-18 07:02 189 0 gusting 6 4.4
2019-Oct-18 06:57 190 1 gusting 6 4.4
2019-Oct-18 06:52 155 1 gusting 6 4.4
2019-Oct-18 06:47 195 1 gusting 6 4.4
2019-Oct-18 06:42 198 1 gusting 5 4.4
2019-Oct-18 06:37 221 1 gusting 5 4.4
2019-Oct-18 06:32 199 1 gusting 5 4.4
2019-Oct-18 06:27 165 2 gusting 5 4.4
2019-Oct-18 06:22 201 2 gusting 5 4.4
2019-Oct-18 06:17 178 1 gusting 4 4.4
2019-Oct-18 06:12 171 1 gusting 6 4.4
2019-Oct-18 06:07 178 1 gusting 6 4.4
2019-Oct-18 06:02 190 1 gusting 6 4.4
2019-Oct-18 05:57 191 2 gusting 5 4.4
2019-Oct-18 05:52 204 1 gusting 6 4.4
2019-Oct-18 05:47 178 1 gusting 6 4.4
2019-Oct-18 05:42 150 2 gusting 6 4.4
2019-Oct-18 05:37 159 2 gusting 6 4.4
2019-Oct-18 05:32 184 2 gusting 6 4.4
2019-Oct-18 05:27 151 1 gusting 6 4.4
2019-Oct-18 05:22 200 1 gusting 6 4.4
2019-Oct-18 05:17 202 1 gusting 6 3.9
2019-Oct-18 05:12 212 2 gusting 6 3.9
2019-Oct-18 05:07 192 2 gusting 6 3.9
2019-Oct-18 05:02 180 2 gusting 6 3.9
2019-Oct-18 04:57 209 2 gusting 6 3.9
2019-Oct-18 04:52 173 1 gusting 6 3.9
2019-Oct-18 04:47 186 1 gusting 6 3.9
2019-Oct-18 04:42 186 2 gusting 6 3.9
2019-Oct-18 04:37 153 2 gusting 6 3.9
2019-Oct-18 04:32 211 2 gusting 6 3.9
2019-Oct-18 04:27 194 2 gusting 6 3.9
2019-Oct-18 04:22 192 2 gusting 6 3.9
2019-Oct-18 04:17 170 3 gusting 7 3.9
2019-Oct-18 04:12 186 3 gusting 7 3.9
2019-Oct-18 04:07 175 4 gusting 7 3.9
2019-Oct-18 04:02 179 3 gusting 6 3.9
2019-Oct-18 03:57 187 2 gusting 6 3.9
2019-Oct-18 03:52 184 2 gusting 6 3.9
2019-Oct-18 03:47 185 2 gusting 6 3.9
2019-Oct-18 03:42 140 2 gusting 6 3.9
2019-Oct-18 03:37 175 2 gusting 6 3.9
2019-Oct-18 03:32 209 2 gusting 7 3.9
2019-Oct-18 03:27 155 3 gusting 7 3.9
2019-Oct-18 03:22 159 3 gusting 6 3.9
2019-Oct-18 03:17 188 3 gusting 6 3.9
2019-Oct-18 03:12 159 3 gusting 7 3.9
2019-Oct-18 03:07 200 3 gusting 7 3.9
2019-Oct-18 03:02 144 3 gusting 6 3.9
2019-Oct-18 02:57 165 3 gusting 6 3.9
2019-Oct-18 02:52 196 3 gusting 8 3.9
2019-Oct-18 02:47 140 2 gusting 8 3.9
2019-Oct-18 02:42 151 3 gusting 7 3.9
2019-Oct-18 02:37 154 3 gusting 7 3.9
2019-Oct-18 02:32 188 3 gusting 6 3.9
2019-Oct-18 02:27 188 3 gusting 6 3.9
2019-Oct-18 02:22 165 3 gusting 7 3.9
2019-Oct-18 02:17 161 3 gusting 7 3.9
2019-Oct-18 02:12 195 3 gusting 9 3.9
2019-Oct-18 02:07 163 4 gusting 9 3.9
2019-Oct-18 02:02 160 3 gusting 9 3.9
2019-Oct-18 01:57 147 3 gusting 8 3.9
2019-Oct-18 01:52 148 3 gusting 6 3.9
2019-Oct-18 01:47 209 3 gusting 6 3.9
2019-Oct-18 01:42 153 2 gusting 5 3.9
2019-Oct-18 01:37 155 2 gusting 6 3.9
2019-Oct-18 01:32 146 2 gusting 6 3.9
2019-Oct-18 01:27 146 2 gusting 6 3.9
2019-Oct-18 01:22 162 2 gusting 5 3.9
2019-Oct-18 01:17 157 2 gusting 6 3.9
2019-Oct-18 01:12 158 2 gusting 6 3.9
2019-Oct-18 01:07 154 2 gusting 6 3.9
2019-Oct-18 01:02 138 2 gusting 6 3.9
2019-Oct-18 00:57 135 2 gusting 6 3.9
2019-Oct-18 00:52 153 3 gusting 6 3.9
2019-Oct-18 00:47 153 1 gusting 5 3.9
2019-Oct-18 00:42 140 1 gusting 4 3.3
2019-Oct-18 00:37 140 2 gusting 4 3.3
2019-Oct-18 00:32 140 1 gusting 4 3.3
2019-Oct-18 00:27 144 0 gusting 4 3.3
2019-Oct-18 00:22 136 1 gusting 4 3.3
2019-Oct-18 00:17 136 1 gusting 3 3.3
2019-Oct-18 00:12 140 1 gusting 4 3.3
2019-Oct-18 00:07 140 1 gusting 4 3.3
2019-Oct-18 00:02 141 1 gusting 6 3.3